Terminal Aerodrome Forecast
Issued by NWS Mobile, AL

Home | Current Version | Previous Version | Text Only | Print | Product List | Glossary On
Versions: 1 2 3 4 5 6 7 8 9 10 11 12 13 14 15 16 17 18 19 20 21 22 23 24 25 26 27 28 29
000
FTUS44 KMOB 022300
TAFMOB
TAF
KMOB 022323Z 0300/0324 VRB03KT P6SM FEW030 SCT150 BKN250
     FM030200 00000KT P6SM VCSH FEW025 BKN150
     FM031500 03006KT P6SM VCTS SCT030CB BKN200 PROB30 0317/0323 5SM
      TSRA BKN030CB=

USA.gov is the U.S. government's official web portal to all federal, state and local government web resources and services.